Location: Azul
(36.7830°S, 59.8500°W)
Time: 08:57:04
(UTC-03:00)

UKube-1 - Pass Details

Date: 26 October 2021
Orbit: 611 x 617 km, 98.4° (Epoch: 07 December)

Event Time Altitude Azimuth Distance (km) Brightness Sun altitude
Exits shadow 22:07:23 13° 301° (WNW) 1,784 ? -28.3°
Maximum altitude 22:09:08 16° 274° (W) 1,626 ? -28.6°
Drops below altitude 10° 22:11:50 10° 235° (SW) 2,000 ? -28.9°
Sets 22:14:49 0° 213° (SSW) 2,915 ? -29.3°
